sat.trackr.live / text

‹ back to catalog

STARLINK-32014

NORAD 60150 · 2024-120R

PAYLOAD ACTIVE UNKNOWN

§ Identity

Operator
Country
US
Launch date
2024-06-27
Launch site
AFETR
Launch vehicle
Mass (kg)
RCS (m²)

Purposes: comms

External: N2YO · Heavens-Above · Gunter

§ Orbital elements

Epoch: 2026-09-21T20:24:27.617760Z

Period
93.85 min
Inclination
53.1585°
Eccentricity
0.0001055
Mean motion
15.34391998 rev/d
Perigee alt
462.0 km
Apogee alt
463.4 km
Semi-major
6,840.9 km
B*
-4.7340e-5
RAAN
125.6282°
Arg perigee
96.7993°
Mean anomaly
263.3129°
Rev number
12,645

§ Raw data

STARLINK-320141 60150U 24120R   26264.85031965 -.00001975  00000+0 -47340-4 0  99932 60150  53.1585 125.6282 0001055  96.7993 263.3129 15.34391998126457

JSON: /api/v1/satellites/60150 · /tle

For live sub-satellite position, see the globe view (requires WebGL).

§ Visibility from observer

Set your observer location to see the next 7 days of passes ≥ 10°. The values pass through the URL so the page stays shareable.

No JS? Fill the form by hand. The geolocation button needs JavaScript.